Weather History for Artesia, NM

Change the Weather History Date:

Monday, December 16, 2013

  Actual Average Record
Temperature  
Mean Temperature 43 °F -  
Max Temperature 62 °F 55 °F 80 °F (2006)
Min Temperature 24 °F 19 °F -9 °F (1987)
Degree Days  
Heating Degree Days 22    
Moisture  
Dew Point 26 °F    
Average Humidity 61    
Maximum Humidity 86    
Minimum Humidity 26    
Precipitation  
Precipitation 0.00 in - - ()
Sea Level Pressure  
Sea Level Pressure 30.21 in    
Wind  
Wind Speed 4 mph (West)    
Max Wind Speed 14 mph    
Max Gust Speed -    
Visibility 10 miles    
Events      
Averages and records for this station are not official NWS values.
T = Trace of Precipitation, MM = Missing Value Source: NWS Daily Summary

Daily Weather History Graph

Daily Weather History Graph

Search for Another Location

Airport:

Trip Planner

Search our weather history database for the weather conditions in past years. The results will help you decide how hot, cold, wet, or windy it might be!

Date:

Astronomy

Dec. 16, 2013 Rise Set
Actual Time 6:53 AM MST 4:53 PM MST
Civil Twilight 6:26 AM MST 5:20 PM MST
Nautical Twilight 5:55 AM MST 5:51 PM MST
Astronomical Twilight 5:25 AM MST 6:21 PM MST
Moon 4:43 PM MST (12/16) 6:07 AM MST (12/16)
Length of Visible Light 10h 54m
Length of Day
9h 59m
Full, 100% of the Moon is Illuminated
Dec 16
Full
Dec 17
Full
Dec 25
Last Quarter
Jan 1
New
Jan 7
First Quarter

Hourly Weather History & Observations

Time (MST) Temp. Windchill Dew Point Humidity Pressure Visibility Wind Dir Wind Speed Gust Speed Precip Events Conditions
12:15 AM 32.0 °F - 26.6 °F 80% 30.25 in 10.0 mi Calm Calm - N/A   Clear
12:35 AM 32.0 °F 28.7 °F 24.8 °F 75% 30.24 in 10.0 mi NNE 3.5 mph - N/A   Clear
12:55 AM 32.0 °F 28.7 °F 24.8 °F 75% 30.24 in 10.0 mi NNE 3.5 mph - N/A   Clear
1:15 AM 28.4 °F 21.2 °F 24.8 °F 86% 30.24 in 10.0 mi North 6.9 mph - N/A   Clear
1:35 AM 30.2 °F 26.7 °F 24.8 °F 80% 30.24 in 10.0 mi WNW 3.5 mph - N/A   Clear
1:55 AM 30.2 °F 24.3 °F 24.8 °F 80% 30.24 in 10.0 mi NNW 5.8 mph - N/A   Clear
2:15 AM 28.4 °F 22.2 °F 24.8 °F 86% 30.23 in 10.0 mi NNW 5.8 mph - N/A   Clear
2:35 AM 28.4 °F 24.6 °F 24.8 °F 86% 30.24 in 10.0 mi NW 3.5 mph - N/A   Clear
2:55 AM 28.4 °F 24.6 °F 24.8 °F 86% 30.23 in 10.0 mi NNW 3.5 mph - N/A   Clear
3:15 AM 28.4 °F 24.6 °F 24.8 °F 86% 30.23 in 10.0 mi NNW 3.5 mph - N/A   Clear
3:35 AM 26.6 °F - 23.0 °F 86% 30.23 in 10.0 mi Calm Calm - N/A   Clear
3:55 AM 28.4 °F - 24.8 °F 86% 30.23 in 10.0 mi Calm Calm - N/A   Clear
4:15 AM 26.6 °F 22.6 °F 23.0 °F 86% 30.22 in 10.0 mi North 3.5 mph - N/A   Clear
4:35 AM 26.6 °F 21.2 °F 23.0 °F 86% 30.22 in 10.0 mi NNW 4.6 mph - N/A   Clear
4:55 AM 28.4 °F 24.6 °F 23.0 °F 80% 30.21 in 10.0 mi WNW 3.5 mph - N/A   Clear
5:15 AM 26.6 °F 19.1 °F 23.0 °F 86% 30.21 in 10.0 mi West 6.9 mph - N/A   Clear
5:35 AM 26.6 °F 19.1 °F 23.0 °F 86% 30.21 in 10.0 mi West 6.9 mph - N/A   Clear
5:55 AM 28.4 °F 20.4 °F 24.8 °F 86% 30.21 in 10.0 mi WNW 8.1 mph - N/A   Clear
6:15 AM 24.8 °F 19.1 °F 21.2 °F 86% 30.21 in 10.0 mi NW 4.6 mph - N/A   Clear
6:35 AM 26.6 °F - 23.0 °F 86% 30.21 in 10.0 mi Calm Calm - N/A   Clear
6:55 AM 26.6 °F 21.2 °F 23.0 °F 86% 30.22 in 10.0 mi SW 4.6 mph - N/A   Clear
7:15 AM 26.6 °F 22.6 °F 23.0 °F 86% 30.22 in 10.0 mi WSW 3.5 mph - N/A   Clear
7:35 AM 28.4 °F 21.2 °F 23.0 °F 80% 30.22 in 10.0 mi WSW 6.9 mph - N/A   Clear
7:55 AM 30.2 °F 24.3 °F 26.6 °F 86% 30.23 in 10.0 mi NNW 5.8 mph - N/A   Clear
8:15 AM 32.0 °F 25.6 °F 26.6 °F 80% 30.23 in 10.0 mi North 6.9 mph - N/A   Clear
8:35 AM 35.6 °F - 28.4 °F 75% 30.24 in 10.0 mi Calm Calm - N/A   Clear
8:55 AM 37.4 °F 34.9 °F 28.4 °F 70% 30.25 in 10.0 mi North 3.5 mph - N/A   Clear
9:15 AM 39.2 °F - 28.4 °F 65% 30.25 in 10.0 mi Calm Calm - N/A   Clear
9:55 AM 41.0 °F - 24.8 °F 53% 30.25 in 10.0 mi Calm Calm - N/A   Clear
10:15 AM 44.6 °F 42.2 °F 24.8 °F 46% 30.25 in 10.0 mi NNW 4.6 mph - N/A   Clear
10:35 AM 46.4 °F - 24.8 °F 43% 30.24 in 10.0 mi Calm Calm - N/A   Clear
10:55 AM 48.2 °F - 24.8 °F 40% 30.24 in 10.0 mi ENE 3.5 mph - N/A   Clear
11:15 AM 48.2 °F - 26.6 °F 43% 30.22 in 10.0 mi Calm Calm - N/A   Clear
12:15 PM 53.6 °F - 26.6 °F 35% 30.19 in 10.0 mi ENE 4.6 mph - N/A   Clear
12:35 PM 55.4 °F - 26.6 °F 33% 30.18 in 10.0 mi Calm Calm - N/A   Clear
12:55 PM 57.2 °F - 26.6 °F 31% 30.17 in 10.0 mi East 3.5 mph - N/A   Clear
1:15 PM 57.2 °F - 26.6 °F 31% 30.16 in 10.0 mi East 4.6 mph - N/A   Clear
1:35 PM 59.0 °F - 26.6 °F 29% 30.15 in 10.0 mi ESE 4.6 mph - N/A   Clear
1:55 PM 60.8 °F - 26.6 °F 27% 30.15 in 10.0 mi South 4.6 mph - N/A   Clear
2:15 PM 62.6 °F - 26.6 °F 26% 30.15 in 10.0 mi South 5.8 mph - N/A   Clear
2:35 PM 62.6 °F - 26.6 °F 26% 30.15 in 10.0 mi South 6.9 mph - N/A   Clear
2:55 PM 62.6 °F - 26.6 °F 26% 30.15 in 10.0 mi SSE 6.9 mph - N/A   Clear
3:15 PM 62.6 °F - 26.6 °F 26% 30.16 in 10.0 mi SSE 5.8 mph - N/A   Clear
3:35 PM 62.6 °F - 26.6 °F 26% 30.16 in 10.0 mi SSE 4.6 mph - N/A   Clear
3:55 PM 62.6 °F - 26.6 °F 26% 30.16 in 10.0 mi South 8.1 mph - N/A   Clear
4:15 PM 60.8 °F - 30.2 °F 31% 30.16 in 10.0 mi South 5.8 mph - N/A   Clear
4:35 PM 59.0 °F - 30.2 °F 34% 30.16 in 10.0 mi SE 3.5 mph - N/A   Clear
4:55 PM 57.2 °F - 30.2 °F 36% 30.17 in 10.0 mi South 4.6 mph - N/A   Clear
5:15 PM 53.6 °F - 30.2 °F 41% 30.17 in 10.0 mi South 5.8 mph - N/A   Clear
5:35 PM 48.2 °F - 30.2 °F 50% 30.17 in 10.0 mi South 9.2 mph - N/A   Clear
5:55 PM 46.4 °F 41.9 °F 30.2 °F 53% 30.17 in 10.0 mi South 9.2 mph - N/A   Clear
6:15 PM 44.6 °F 40.7 °F 30.2 °F 57% 30.18 in 10.0 mi South 6.9 mph - N/A   Clear
6:35 PM 46.4 °F 41.9 °F 30.2 °F 53% 30.19 in 10.0 mi WSW 9.2 mph - N/A   Clear
6:55 PM 44.6 °F 38.1 °F 30.2 °F 57% 30.19 in 10.0 mi West 13.8 mph - N/A   Clear
7:15 PM 44.6 °F 38.1 °F 28.4 °F 53% 30.19 in 10.0 mi West 13.8 mph - N/A   Clear
7:35 PM 44.6 °F 38.4 °F 28.4 °F 53% 30.20 in 10.0 mi West 12.7 mph - N/A   Clear
7:55 PM 44.6 °F 38.4 °F 28.4 °F 53% 30.20 in 10.0 mi West 12.7 mph - N/A   Clear
8:15 PM 44.6 °F 38.1 °F 28.4 °F 53% 30.20 in 10.0 mi West 13.8 mph - N/A   Clear
8:35 PM 44.6 °F 39.2 °F 28.4 °F 53% 30.21 in 10.0 mi West 10.4 mph - N/A   Clear
8:55 PM 41.0 °F 34.3 °F 28.4 °F 61% 30.21 in 10.0 mi West 11.5 mph - N/A   Clear
9:15 PM 39.2 °F - 28.4 °F 65% 30.22 in 10.0 mi Calm Calm - N/A   Clear
9:55 PM 37.4 °F 32.1 °F 26.6 °F 65% 30.23 in 10.0 mi WNW 6.9 mph - N/A   Clear
10:15 PM 39.2 °F 37.0 °F 26.6 °F 61% 30.25 in 10.0 mi WNW 3.5 mph - N/A   Clear
10:55 PM 37.4 °F 34.9 °F 26.6 °F 65% 30.25 in 10.0 mi WNW 3.5 mph - N/A   Clear
11:15 PM 37.4 °F 32.8 °F 26.6 °F 65% 30.25 in 10.0 mi NW 5.8 mph - N/A   Clear
11:35 PM 37.4 °F 31.4 °F 26.6 °F 65% 30.25 in 10.0 mi West 8.1 mph - N/A   Clear
11:55 PM 35.6 °F 29.2 °F 26.6 °F 70% 30.25 in 10.0 mi West 8.1 mph - N/A   Clear